Location: Rio Negrinho
(26.2394°S, 49.4999°W)
Time: 22:00:55
(UTC+00:00)

OAO 1 - Pass Details

Date: 07 June 2020
Orbit: 773 x 784 km, 35.0° (Epoch: 10 July)

Event Time Altitude Azimuth Distance (km) Brightness Sun altitude
Exits shadow 08:40:07 22° 292° (WNW) 1,656 5.8 -17.7°
Maximum altitude 08:43:47 83° 206° (SSW) 791 4.5 -16.9°
Drops below altitude 10° 08:49:20 10° 116° (ESE) 2,335 7.7 -15.7°
Sets 08:51:49 0° 115° (ESE) 3,263 8.5 -15.2°
